Skip Page Navigation
NASA JPL Caltech
NASA Logo - Jet Propulsion Laboratory + View the NASA Portal
+ Near-Earth Object (NEO) Program
Search JPL
JPL Home Earth Solar System Stars & Galaxies Technology
JPL Solar System Dynamics
BODIES ORBITS EPHEMERIDES TOOLS PHYSICAL DATA DISCOVERY FAQ SITE MAP
JPL Small-Body Database Browser
Search: [ help ]  
22286 (1988 BO3)
Classification: Main-belt Asteroid          SPK-ID: 2022286
Ephemeris | Orbit Diagram | Orbital Elements | Physical Parameters | Discovery Circumstances | Close-Approach Data ]

[ show orbit diagram ]
Orbital Elements at Epoch 2457400.5 (2016-Jan-13.0) TDB
Reference: JPL 18 (heliocentric ecliptic J2000)
 Element Value Uncertainty (1-sigma)   Units 
e .1254378803908411 4.2102e-08  
a 2.576436292626741 1.7386e-08 au
q 2.253253585117606 1.101e-07 au
i 8.302522460091803 6.5338e-06 deg
node 194.9523621607955 3.175e-05 deg
peri 263.5883211361636 4.4012e-05 deg
M 287.5350883711018 3.3243e-05 deg
tp 2457704.555459094235
(2016-Nov-12.05545909)
0.00014116 JED
period 1510.523683993192
4.14
1.529e-05
4.186e-08
d
yr
n .2383279413721675 2.4124e-09 deg/d
Q 2.899619000135877 1.9567e-08 au
  Orbit Determination Parameters
   # obs. used (total)      1141  
   data-arc span      13598 days (37.23 yr)  
   first obs. used      1978-09-28  
   last obs. used      2015-12-21  
   planetary ephem.      DE431  
   SB-pert. ephem.      SB431-BIG16  
   condition code      0  
   fit RMS      .51111  
   data source      ORB  
   producer      Otto Matic  
   solution date      2016-Jan-04 13:50:00  

Additional Information
 Earth MOID = 1.28765 au 
 Jupiter MOID = 2.30709 au 
 T_jup = 3.401 
[ show covariance matrix ]

Ephemeris | Orbit Diagram | Orbital Elements | Physical Parameters | Discovery Circumstances | Close-Approach Data ]

Physical Parameter Table
Parameter Symbol Value Units Sigma Reference Notes
absolute magnitude H 14.1 mag n/a MPO302201  

22286 (1988 BO3)          Discovered 1988-Jan-18 by Debehogne, H. at La Silla
Reference: 20010309/Numbers.arcLast Updated: 2004-04-19

[ show close-approach data ]
Alternate Designations
 1988 BO3 = 1978 SV1 = 1999 TV11 
Ephemeris | Orbit Diagram | Orbital Elements | Physical Parameters | Discovery Circumstances | Close-Approach Data ]
ABOUT SSD CREDITS/AWARDS PRIVACY/COPYRIGHT GLOSSARY LINKS
FirstGov 2016-Feb-09 05:41 UT
(server date/time)  
NASA Home Page
Site Manager:   Ryan S. Park
Webmaster  Alan B. Chamberlin